Regional Weather Roundup
Issued by NWS Jackson, KY

Home | Current Version | Previous Version | Text Only | Print | Product List | Glossary On
Versions: 1 2 3 4 5 6 7 8 9 10 11 12 13 14 15 16 17 18 19 20 21 22 23 24 25 26 27 28 29 30 31 32 33 34 35 36 37 38 39 40 41 42 43 44 45 46 47 48 49 50
000
ASUS43 KJKL 221810
RWRJKL

EAST KENTUCKY HOURLY WEATHER ROUNDUP
NATIONAL WEATHER SERVICE JACKSON KY
200 PM EDT MON JUL 22 2019

NOTE: "FAIR" INDICATES FEW OR NO CLOUDS BELOW 12,000 FEET WITH
NO SIGNIFICANT WEATHER AND/OR OBSTRUCTIONS TO VISIBILITY.

* THESE REPORTS ARE NOT UNDER NWS QUALITY CONTROL AND MAY NOT
  REPORT WEATHER SUCH AS PRECIPITATION AND FOG.

KYZ079-080-083-085-087-088-110-112-115-119-120-221900
...EASTERN KENTUCKY...

CITY           SKY/WX    TMP DP  RH WIND       PRES   REMARKS
JACKSON        CLOUDY    76  74  93 VRB5      29.94S
6HR MIN TEMP:  71; 6HR MAX TEMP:  77; 6HR PCP:  0.42;

LONDON         CLOUDY    78  75  90 W8        29.96S
6HR MIN TEMP:  70; 6HR MAX TEMP:  77; 6HR PCP:  0.44;

SOMERSET*      LGT RAIN  73  73 100 W8        29.98R
MONTICELLO*    LGT RAIN  75  73  94 W9G20     29.98F
6HR MIN TEMP:  72; 6HR MAX TEMP:  76;

WILLIAMSBURG*    N/A     75  75 100 SW7       29.96F
MIDDLESBORO*   PTSUNNY   83  72  68 W6        29.97S
6HR MIN TEMP:  72; 6HR MAX TEMP:  83; 6HR PCP:  0.02;

HARLAN APT*    CLOUDY    73  72  96 CALM      29.99S VSB 1
PIKE CO APT*   CLOUDY    77  76  96 SW5       29.95F
BIG SANDY APT* LGT RAIN  76  76 100 SW5       29.93F
MOREHEAD APT*  MOCLDY    73  72  94 CALM      29.93F
ASHLAND*       LGT RAIN  74  73  97 W5        29.88F
$$

KYZ035-036-041-042-044-050-067-078-099-221900
...CENTRAL KENTUCKY...

CITY           SKY/WX    TMP DP  RH WIND       PRES   REMARKS
MT STERLING*   PTSUNNY   79  72  78 W9        29.93F
FLEMING/MASON* LGT RAIN  76  73  91 W9        29.91F
DANVILLE*      CLOUDY    77  72  83 SW8       29.95S
LEXINGTON      CLOUDY    80  71  74 SW12      29.92S
6HR MIN TEMP:  73; 6HR MAX TEMP:  82; 6HR PCP:  0.03;

FRANKFORT      PTSUNNY   80  72  76 W5        29.91S
6HR MIN TEMP:  73; 6HR MAX TEMP:  82; 6HR PCP:  0.02;

LOUISVILLE     LGT RAIN  82  71  69 W7        29.91S
6HR MIN TEMP:  75; 6HR MAX TEMP:  82; 6HR PCP: TRACE;

LEBANON*       CLOUDY    77  75  94 SW6       29.93F FOG
GLASGOW*       LGT RAIN  72  70  95 SW5       29.94F
BOWLING GREEN  RAIN      74  70  87 CALM      29.94F
6HR MIN TEMP:  72; 6HR MAX TEMP:  82; 6HR PCP:  0.61;

$$

KYZ091>093-OHZ055-061-077-WVZ005-015-034-035-042-221900
...SOUTHERN OHIO/WEST VIRGINIA...

CITY           SKY/WX    TMP DP  RH WIND       PRES   REMARKS
COVINGTON      LGT RAIN  72  68  87 N14       29.92R
COLUMBUS       CLOUDY    73  65  75 N9        29.90R
DAYTON         CLOUDY    73  66  78 N10       29.95S
WILMINGTON     CLOUDY    71  68  90 N13       29.91S
HUNTINGTON     LGT RAIN  74  72  93 SW5       29.88F FOG
PINEVILLE*     RAIN      74  72  92 MISG      30.02R
BECKLEY        CLOUDY    75  68  78 SW7       30.00F
BLUEFIELD      LGT RAIN  66  64  93 SW10      30.05S FOG
LOGAN CO APT*  MOCLDY    77  73  88 SW5       29.94F
$$

VAZ002-007-008-TNZ017-027-036-066-071-221900
...SOUTHWEST VIRGINIA/EAST TENNESSEE...

CITY           SKY/WX    TMP DP  RH WIND       PRES   REMARKS
WISE*            N/A     70  70 100 S7        30.07R
JONESVILLE*      N/A     79  73  83 MISG      30.00F
ABINGDON*      LGT RAIN  71  71 100 NW10      30.05R
BRISTOL        LGT RAIN  75  72  90 W5        30.01S
MORRISTOWN*    PTCLDY    84  73  70 W13       29.97F HX  91
SEVIERVILLE*   CLOUDY    84  72  65 SW8       29.96F
KNOXVILLE      CLOUDY    79  69  71 S16       29.96F
LAFOLLETTE*    PTCLDY    72  72 100 SE5       30.01S
OAK RIDGE      PTSUNNY   87  71  58 VRB5      29.97F HX  93
CROSSVILLE     PTSUNNY   78  70  76 W8        30.01F
NASHVILLE      PTSUNNY   89  73  59 VRB6      29.93F HX  97
$$

...KEY TO REMARKS...
VSB - VISIBILITY IN MILES
WCI - WIND CHILL INDEX
HX  - HEAT INDEX

$$



USA.gov is the U.S. government's official web portal to all federal, state and local government web resources and services.